{"data":{"norad_id":48340,"epoch":"2026-05-25T05:35:12.344064Z","epoch_age_seconds":61671,"freshness":"FRESH","line1":"1 48340U 21037A   26145.23278176 -.00000090  00000+0  18335-6 0  9991","line2":"2 48340  63.4020 205.3362 0060535 355.1295   4.9134 13.45566612248910","mean_motion":13.45566612,"eccentricity":0.0060535,"inclination_deg":63.402,"raan_deg":205.3362,"arg_perigee_deg":355.1295,"mean_anomaly_deg":4.9134,"bstar":1.8335e-7,"rev_number":24891,"period_min":107.01811319914,"perigee_km":1043.4146666244,"apogee_km":1133.8146288234,"semimajor_km":7466.7516477239,"source":"CELESTRAK","updated_at":"2026-05-25T13:37:56.781495Z"}}